Home   Weather   Managua   Past weeks

Flag for Nicaragua Past Weather in Managua, Nicaragua — Yesterday and Last 2 Weeks

Now
75 °F

Passing clouds.


Feels Like: 75 °F
Forecast: 74 / 87 °F
Wind: No wind

Location: Managua A. C. Sandino

Current Time: Dec 8, 2016 at 6:22:48 am

Latest Report: Dec 8, 2016 at 6:00 am


Visibility: N/A

Pressure: 29.89 "Hg

Humidity: 83%

Dew Point: 70 °F

Location of ManaguaLocation

Past Weather in Managua — Graph

°F

Managua Temperature Yesterday

Maximum temperature yesterday: 91 °F (at 2:00 pm)
Minimum temperature yesterday: 72 °F (at 5:00 am)
Average temperature yesterday: 81 °F

High & Low Weather Summary for the Past Weeks

 TemperatureHumidityPressure
High93 °F (Nov 27, 2:00 pm)94% (Nov 23, 6:00 am)32.19 "Hg (Nov 23, 6:00 am)
Low68 °F (Nov 23, 6:00 am)46% (Nov 24, 1:00 pm)29.71 "Hg (Nov 28, 3:00 pm)
Average81 °F73%29.83 "Hg
* Reported Nov 23 5:00 am — Dec 8 5:00 am, Managua, Weather by CustomWeather, © 2016

Note: Actual official high and low records may vary slightly from our data, if they occured in-between our weather recording intervals... More about our weather records

Advertising

Managua Weather History for the Previous 24 Hours

Scroll right to see more
 ConditionsComfort  
Time TempWeatherWind HumidityBarometerVisibility
5:00 am
Thu, Dec 8
77 °FPassing clouds.7 mph83%29.89 "HgN/A
4:00 am75 °FPassing clouds.No wind83%29.86 "HgN/A
2:00 am75 °FPassing clouds.No wind78%29.86 "HgN/A
1:00 am75 °FPassing clouds.No wind83%29.86 "HgN/A
12:00 am75 °FPassing clouds.5 mph83%29.89 "HgN/A
11:00 pm
Wed, Dec 7
75 °FPassing clouds.No wind78%29.92 "HgN/A
10:00 pm75 °FPassing clouds.No wind78%29.92 "HgN/A
9:00 pm79 °FPassing clouds.5 mph74%29.92 "HgN/A
8:00 pm81 °FPassing clouds.7 mph70%29.89 "HgN/A
7:00 pm82 °FPassing clouds.7 mph66%29.86 "HgN/A
6:00 pm82 °FPassing clouds.5 mph70%29.80 "HgN/A
5:00 pm86 °FPassing clouds.12 mph55%29.77 "HgN/A
4:00 pm90 °FPassing clouds.12 mph49%29.77 "HgN/A
3:00 pm90 °FPassing clouds.12 mph49%29.74 "HgN/A
2:00 pm91 °FPassing clouds.12 mph46%29.77 "HgN/A
1:00 pm90 °FPassing clouds.14 mph52%29.80 "HgN/A
12:00 pm90 °FPassing clouds.12 mph55%29.83 "HgN/A
11:00 am86 °FPassing clouds.9 mph62%29.89 "HgN/A
10:00 am84 °FScattered clouds.9 mph70%29.89 "HgN/A
9:00 am82 °FScattered clouds.7 mph70%29.92 "HgN/A
8:00 am79 °FScattered clouds.5 mph79%29.89 "HgN/A
7:00 am75 °FPassing clouds.7 mph89%29.89 "HgN/A
6:00 am72 °FPassing clouds.No wind94%29.86 "HgN/A
Weather by CustomWeather, © 2016

See weather overviewHow to use our weather pages